User: anonymous   Login
Location: Bandys
(35.4750°N, 81.0830°W)
Time: 14:16:47
(UTC-05:00)
Language:

DELTA 2 R/B (1) - Orbit

View from above orbital plane
View from above orbital plane
View from above satellite
View from above satellite

Ground track
Ground track

The orbit data is extracted from the following two-line orbital elements,

1 27665U 03005C   15059.10477953  .00000005  00000-0  35753-4 0  9992
2 27665 039.5762 067.4429 0008957 211.4783 198.2201 14.28302356630788
Epoch (UTC): 28 February 2015 02:30:52
Eccentricity: 0.0008957
inclination: 39.5762°
perigee height: 791 km
apogee height: 804 km
right ascension of ascending node: 67.4429°
argument of perigee: 211.4783°
revolutions per day: 14.28302356
mean anomaly at epoch: 198.2201°
orbit number at epoch: 63078

The dashed part of the orbit path shows where the satellite is in the earth's shadow,  

DLR